Wind_Speed
18 18 19 19 19 18 18 18 18 17 16 15 14 14 14 13 13 12 11 11 10 10 10 9 9 8 7 6 6 5 5 5 4 3 3 3 3 3 3 2 2 1 1
20 20 20 20 20 19 19 19 19 18 17 16 16 15 15 14 14 13 13 13 12 11 11 10 10 9 9 8 8 7 7 6 6 5 5 4 4 4 4 3 3 2 3
21 21 21 21 21 21 21 20 20 20 19 18 17 16 16 16 15 15 14 14 14 13 12 11 11 10 10 9 9 8 8 8 8 7 6 6 6 5 5 4 4 4 4
23 22 22 22 22 22 22 22 21 21 20 20 19 18 17 17 17 16 15 15 15 15 14 13 13 12 11 10 10 9 9 9 9 9 8 7 7 6 6 6 5 5 5
24 24 24 24 23 23 23 22 22 22 22 21 20 19 19 18 18 18 17 16 16 16 15 15 14 13 13 12 12 11 10 10 10 10 9 9 8 8 7 7 7 6 6
26 25 25 25 25 25 24 24 23 23 23 22 22 21 20 20 19 19 18 18 17 17 17 17 16 15 14 14 13 13 12 11 11 11 11 10 10 10 9 9 8 7 7
27 26 26 27 27 26 26 25 24 24 23 23 22 22 21 21 20 20 19 19 19 18 18 18 17 17 16 15 14 14 13 13 12 11 11 11 11 11 11 11 10 9 8
28 28 27 27 28 28 27 27 26 25 25 24 24 23 23 22 22 21 20 20 20 19 19 19 19 18 17 17 16 15 14 14 13 13 13 12 12 12 12 12 12 11 10
30 29 29 29 29 29 29 28 27 27 27 26 25 25 25 24 23 23 22 22 21 21 21 20 20 19 19 18 18 17 16 16 15 14 14 14 13 13 13 13 13 13 13
32 31 31 30 30 30 30 30 29 29 28 28 27 27 26 25 25 24 24 24 24 23 23 22 22 21 20 20 19 19 18 17 17 16 15 15 15 15 15 15 14 14 14
32 32 32 31 32 32 32 31 31 30 30 29 29 29 28 27 27 26 26 26 26 25 25 24 24 23 23 21 20 20 20 20 18 18 17 17 16 16 16 16 16 16 16
32 32 33 33 33 33 33 33 33 32 32 31 31 30 30 29 28 27 27 27 27 27 27 25 25 25 24 23 23 22 21 21 21 20 19 18 18 17 17 17 17 17 17
34 34 34 35 35 35 35 35 35 34 33 33 32 32 31 31 30 29 28 29 28 28 28 27 27 26 26 25 25 24 24 23 23 22 21 21 20 20 19 19 19 19 19
35 35 35 35 35 35 35 36 36 36 35 34 34 33 33 33 32 31 30 29 28 28 29 29 28 27 27 27 27 26 25 25 25 24 23 22 22 22 22 22 21 20 20
35 36 37 37 37 36 36 37 37 37 36 36 36 35 35 35 34 33 32 32 31 30 30 31 30 29 28 28 28 28 27 27 26 26 25 24 23 23 23 23 23 22 22
37 37 38 39 39 38 38 38 39 39 38 38 37 37 37 37 36 35 34 33 32 31 31 31 31 31 30 29 29 29 28 28 28 27 27 26 25 25 25 25 24 24 25
38 39 39 40 40 40 39 40 40 41 40 40 40 39 39 38 38 37 36 36 35 33 33 32 32 32 32 32 30 30 29 29 29 29 28 28 28 28 27 27 27 27 27
38 39 40 42 41 40 40 41 41 42 42 41 41 40 40 39 39 39 38 37 36 35 35 35 34 33 32 32 33 32 31 31 31 31 30 30 30 30 30 30 29 29 29
40 40 41 42 42 42 41 41 41 42 43 42 42 41 41 41 40 40 39 39 38 38 37 37 36 35 35 34 33 33 33 33 33 33 32 32 32 32 32 32 32 31 31
41 41 42 42 43 43 42 42 42 43 43 43 42 42 42 43 43 42 41 40 40 40 39 39 39 38 37 36 35 35 35 34 34 34 34 34 34 34 34 34 34 33 32
41 41 42 43 44 44 43 43 43 43 43 43 43 44 44 44 45 44 43 42 42 42 42 41 40 39 39 38 38 37 37 37 37 36 36 36 36 35 35 35 36 36 36
41 41 42 44 45 45 45 44 43 43 44 43 42 44 45 44 45 45 44 43 43 43 42 42 42 41 41 40 40 39 39 39 39 38 38 38 37 37 37 37 37 37 38
41 42 42 42 43 44 45 45 45 44 45 45 45 44 45 45 46 46 45 44 44 44 43 43 43 42 42 42 42 41 41 40 40 40 40 40 39 39 39 39 39 39 39
40 41 42 43 44 45 46 45 45 45 46 46 46 47 46 46 46 46 46 45 45 44 43 43 43 43 43 43 43 43 43 42 42 42 41 41 40 40 40 40 40 41 41
41 42 43 44 45 45 46 46 46 46 46 47 47 46 46 46 47 47 46 46 45 45 45 45 45 44 44 43 42 43 44 44 43 43 42 41 41 42 42 41 41 42 42
42 43 44 45 45 46 47 47 48 48 48 48 48 46 46 46 47 47 47 46 46 46 47 47 47 46 45 45 45 44 44 45 44 44 43 42 42 42 42 43 43 43 43
Wind_Direction
242 240 239 237 236 236 234 233 231 229 228 229 229 228 228 227 227 227 227 228 230 229 228 230 230 233 234 235 239 243 244 241 244 253 261 270 280 284 296 296 290 278 256
243 241 239 237 236 236 235 234 233 231 230 230 230 231 231 230 229 230 230 230 232 232 230 229 231 235 237 238 242 245 246 246 249 254 260 263 267 269 273 286 274 269 269
244 241 239 238 237 236 237 236 235 233 232 232 232 233 233 231 232 232 234 234 234 234 233 232 235 238 239 241 244 246 248 249 251 255 260 259 259 260 261 269 270 263 269
243 241 240 238 237 236 236 236 236 235 234 234 234 234 234 234 235 236 236 237 238 238 235 235 237 240 243 243 244 247 248 249 251 253 256 256 254 254 258 261 260 259 262
243 241 239 238 238 236 236 236 236 235 235 235 235 235 235 235 236 236 237 238 240 240 238 239 240 241 243 246 247 248 250 252 252 252 252 252 252 253 257 258 256 258 260
242 241 240 239 238 238 238 237 236 236 236 236 236 236 236 236 237 237 238 239 240 240 241 241 242 243 245 247 247 248 250 251 252 251 252 252 252 253 254 256 259 260 261
244 242 241 241 239 239 239 239 238 238 237 236 236 237 238 238 239 240 239 240 240 240 242 243 243 244 247 248 248 247 250 251 250 251 252 252 253 254 254 255 259 259 259
244 243 241 241 240 239 239 240 238 238 238 238 238 238 239 239 240 241 241 240 240 241 242 243 244 245 247 249 249 248 249 251 250 250 251 251 253 256 258 258 258 258 258
244 243 242 242 241 240 240 241 240 240 239 239 239 240 240 241 241 240 240 240 240 241 242 244 245 246 247 249 250 249 249 249 250 252 253 253 253 256 258 258 257 258 259
245 244 243 242 242 241 241 241 241 241 241 240 240 241 241 242 242 240 240 240 240 241 243 245 245 245 246 249 251 250 251 250 250 250 251 253 255 256 256 256 255 257 258
246 246 245 244 243 242 241 241 242 242 242 242 241 241 242 242 243 242 241 241 242 242 243 245 246 246 245 248 250 251 250 250 248 250 249 251 253 255 256 256 256 257 257
246 246 246 245 244 243 243 242 241 242 242 241 241 241 242 243 243 243 242 242 242 244 243 244 246 246 245 247 249 250 250 250 251 252 251 251 251 254 256 258 258 257 258
247 246 247 246 245 244 243 243 242 243 242 241 242 242 242 242 244 244 244 243 243 244 243 244 246 247 246 247 249 250 251 252 252 253 253 253 253 253 256 257 258 259 259
247 247 247 246 245 243 243 243 243 243 242 241 243 243 243 243 244 246 245 243 245 246 244 244 246 247 247 248 249 249 251 253 254 255 255 255 255 256 256 257 258 259 260
249 248 246 246 246 245 244 244 244 244 244 242 243 244 244 244 245 246 246 245 248 248 247 246 245 245 245 247 249 249 250 251 254 254 255 255 255 256 256 257 259 260 260
249 248 247 246 246 247 247 246 245 244 244 243 243 244 244 245 245 246 245 246 248 248 247 247 247 247 247 247 248 249 249 251 252 254 255 255 256 256 257 258 260 261 263
249 249 248 247 247 247 247 247 246 245 245 245 243 244 245 245 246 246 246 247 248 249 249 249 250 249 247 248 249 251 251 251 252 253 255 257 257 258 258 259 261 262 262
251 250 249 248 247 247 248 247 246 246 246 246 244 244 245 245 246 245 246 247 248 249 249 249 250 249 248 249 250 251 252 253 254 254 256 258 259 260 260 260 262 263 263
252 251 250 249 249 248 248 248 247 247 247 246 246 246 246 246 247 246 246 247 247 247 248 248 248 250 250 250 252 251 252 253 255 255 257 258 259 260 261 262 262 263 264
252 251 250 249 249 248 249 248 248 248 247 246 246 246 247 247 247 247 247 248 248 248 248 249 249 250 251 252 253 253 252 253 255 256 257 258 259 260 260 261 262 264 265
252 251 250 249 248 249 248 248 248 248 248 247 247 246 246 246 247 247 247 248 248 248 248 249 250 251 251 253 254 254 254 255 257 257 258 259 260 261 262 262 263 264 265
252 250 250 249 248 249 249 249 249 247 247 247 246 246 246 246 247 247 248 248 249 248 249 250 251 252 253 253 254 255 256 256 257 258 259 259 259 260 262 263 264 265 265
252 252 251 249 248 248 248 249 248 247 248 248 248 247 246 247 248 247 248 248 249 249 250 251 253 253 254 254 255 256 257 257 258 258 258 259 259 260 261 262 263 264 265
253 253 252 250 249 249 249 248 248 248 249 250 250 250 248 247 247 248 248 248 249 249 250 250 252 252 254 255 255 256 257 257 258 258 258 259 260 260 261 263 264 264 265
253 252 251 251 250 249 248 248 248 249 249 249 250 251 250 248 248 248 249 249 248 249 250 251 251 253 254 254 256 256 256 257 257 257 257 258 258 260 261 262 264 264 264
255 253 252 251 250 249 248 248 249 250 249 249 249 250 249 248 247 247 248 249 249 250 251 252 253 254 254 255 255 256 256 256 256 256 257 257 258 259 261 262 263 263 264
Height
5823 5824 5826 5827 5829 5830 5832 5833 5835 5836 5838 5839 5840 5841 5843 5844 5845 5846 5847 5848 5849 5850 5851 5852 5853 5853 5854 5855 5856 5856 5856 5857 5857 5858 5858 5859 5859 5859 5859 5860 5861 5861 5861
5820 5821 5823 5824 5826 5828 5829 5831 5832 5834 5835 5837 5838 5839 5841 5842 5843 5844 5845 5847 5848 5849 5850 5851 5852 5852 5853 5854 5855 5855 5856 5856 5857 5857 5858 5858 5859 5859 5859 5859 5860 5860 5861
5816 5817 5819 5821 5823 5825 5826 5828 5829 5831 5832 5834 5835 5837 5838 5839 5841 5842 5844 5845 5846 5847 5848 5849 5850 5851 5852 5853 5853 5854 5855 5855 5856 5856 5857 5857 5858 5858 5858 5859 5859 5860 5860
5812 5814 5815 5817 5819 5821 5823 5824 5826 5828 5829 5831 5833 5834 5835 5837 5838 5840 5841 5843 5844 5845 5846 5847 5848 5849 5850 5851 5852 5853 5853 5854 5855 5855 5856 5856 5857 5857 5857 5858 5858 5859 5859
5808 5810 5812 5813 5815 5817 5819 5821 5822 5824 5826 5828 5829 5831 5833 5834 5836 5837 5838 5840 5841 5843 5844 5845 5846 5847 5848 5849 5850 5851 5852 5852 5853 5854 5854 5855 5855 5856 5856 5857 5857 5857 5858
5803 5805 5807 5809 5811 5813 5815 5817 5818 5820 5822 5824 5826 5828 5829 5831 5832 5834 5836 5837 5838 5840 5841 5842 5844 5845 5846 5847 5848 5849 5850 5850 5851 5852 5852 5853 5853 5854 5855 5855 5856 5856 5856
5798 5800 5802 5804 5806 5808 5810 5812 5814 5816 5818 5820 5822 5824 5826 5827 5829 5831 5832 5834 5835 5837 5838 5839 5841 5842 5843 5844 5845 5846 5847 5848 5849 5850 5850 5851 5851 5852 5853 5853 5854 5855 5855
5793 5795 5797 5799 5801 5803 5805 5807 5810 5811 5813 5816 5818 5820 5822 5823 5825 5827 5828 5830 5832 5833 5835 5836 5838 5839 5840 5842 5843 5844 5845 5846 5846 5847 5848 5849 5849 5850 5851 5851 5852 5853 5853
5787 5789 5792 5794 5796 5798 5800 5802 5804 5807 5809 5811 5813 5815 5817 5819 5821 5822 5824 5826 5827 5829 5831 5832 5834 5836 5837 5838 5839 5841 5842 5843 5844 5845 5846 5846 5847 5847 5848 5849 5850 5850 5851
5781 5783 5786 5788 5790 5792 5794 5797 5799 5800 5803 5806 5808 5810 5812 5814 5816 5818 5819 5821 5823 5825 5826 5828 5830 5831 5833 5834 5836 5837 5839 5840 5841 5842 5843 5844 5844 5845 5846 5846 5847 5848 5848
5775 5777 5779 5781 5784 5786 5788 5791 5793 5795 5798 5800 5802 5805 5807 5809 5811 5813 5814 5816 5818 5820 5822 5824 5825 5827 5829 5831 5832 5834 5835 5836 5837 5838 5840 5840 5841 5842 5842 5843 5844 5845 5845
5768 5770 5772 5774 5777 5779 5782 5784 5786 5788 5791 5794 5796 5799 5801 5803 5805 5807 5809 5811 5813 5815 5817 5819 5821 5822 5824 5826 5828 5830 5831 5832 5833 5834 5836 5837 5837 5838 5839 5840 5841 5841 5842
5760 5763 5765 5767 5770 5772 5775 5777 5779 5781 5784 5787 5790 5792 5795 5797 5799 5801 5804 5806 5808 5810 5812 5814 5816 5817 5819 5821 5823 5825 5826 5828 5829 5830 5831 5832 5834 5834 5835 5836 5837 5837 5838
5753 5755 5757 5759 5762 5764 5767 5769 5772 5774 5777 5780 5783 5786 5788 5791 5793 5795 5798 5800 5802 5804 5806 5808 5810 5812 5814 5816 5818 5819 5821 5823 5824 5826 5827 5828 5829 5830 5831 5832 5832 5833 5834
5745 5747 5749 5752 5754 5756 5759 5761 5764 5767 5770 5773 5775 5778 5781 5784 5786 5789 5791 5794 5796 5798 5800 5802 5804 5806 5808 5810 5812 5814 5816 5817 5819 5820 5822 5823 5824 5825 5826 5827 5828 5828 5829
5736 5739 5741 5743 5746 5748 5750 5753 5756 5758 5761 5764 5767 5770 5773 5776 5779 5782 5784 5787 5789 5791 5794 5796 5798 5800 5802 5804 5806 5808 5810 5811 5813 5815 5816 5817 5819 5820 5821 5822 5823 5823 5824
5728 5730 5732 5735 5737 5739 5742 5744 5747 5750 5753 5756 5759 5762 5765 5768 5771 5774 5777 5779 5782 5784 5787 5789 5791 5794 5796 5798 5800 5802 5803 5805 5807 5808 5810 5811 5813 5814 5815 5816 5817 5818 5818
5718 5721 5723 5726 5728 5730 5733 5735 5738 5741 5744 5747 5750 5753 5757 5759 5762 5765 5768 5771 5774 5776 5779 5782 5784 5787 5789 5791 5793 5795 5797 5798 5800 5802 5803 5805 5806 5807 5809 5810 5810 5811 5812
5708 5711 5714 5716 5718 5721 5724 5726 5728 5731 5734 5737 5741 5744 5747 5750 5753 5757 5760 5763 5765 5768 5771 5774 5777 5779 5781 5784 5786 5788 5790 5791 5793 5794 5796 5798 5799 5800 5801 5802 5803 5804 5805
5698 5701 5703 5706 5708 5711 5714 5717 5719 5722 5725 5728 5731 5734 5737 5741 5744 5747 5750 5753 5756 5759 5762 5765 5768 5771 5773 5776 5778 5780 5782 5784 5785 5787 5788 5790 5792 5793 5794 5795 5796 5797 5798
5688 5691 5693 5695 5698 5701 5704 5707 5710 5712 5715 5718 5721 5724 5727 5731 5734 5737 5741 5744 5747 5750 5753 5756 5759 5762 5765 5767 5769 5771 5773 5775 5777 5778 5780 5782 5783 5785 5786 5787 5788 5789 5790
5677 5680 5682 5685 5687 5690 5693 5696 5699 5702 5704 5707 5710 5713 5717 5720 5724 5727 5731 5734 5737 5740 5744 5747 5749 5752 5755 5757 5760 5762 5764 5767 5768 5769 5771 5773 5774 5776 5777 5778 5779 5780 5781
5667 5669 5672 5674 5677 5679 5682 5685 5688 5691 5694 5697 5700 5703 5706 5710 5713 5717 5721 5724 5727 5730 5734 5737 5739 5742 5745 5747 5749 5752 5754 5756 5758 5760 5761 5763 5765 5766 5767 5769 5770 5771 5772
5657 5659 5661 5663 5666 5669 5671 5675 5678 5681 5684 5687 5689 5692 5695 5699 5702 5706 5710 5714 5717 5720 5723 5726 5729 5732 5734 5737 5739 5741 5744 5745 5748 5750 5752 5753 5755 5756 5758 5759 5760 5761 5761
5646 5648 5650 5652 5655 5657 5660 5664 5667 5670 5673 5676 5678 5681 5684 5687 5691 5695 5699 5702 5706 5709 5712 5715 5718 5721 5723 5726 5728 5730 5732 5734 5736 5738 5741 5743 5745 5746 5747 5748 5749 5750 5751
5635 5637 5639 5641 5644 5646 5649 5652 5655 5659 5662 5664 5667 5670 5673 5676 5679 5684 5687 5691 5695 5698 5701 5704 5707 5709 5712 5714 5717 5719 5721 5723 5725 5727 5729 5732 5734 5735 5736 5737 5738 5739 5740